TimeEDT,TemperatureF,Dew PointF,Humidity,Sea Level PressureIn,VisibilityMPH,Wind Direction,Wind SpeedMPH,Gust SpeedMPH,PrecipitationIn,Events,Conditions,WindDirDegrees,DateUTC
12:54 AM,54.0,37.9,55,30.06,10.0,WNW,9.2,-,N/A,,Clear,290,2012-10-11 04:54:00
1:54 AM,52.0,39.0,61,30.07,10.0,WNW,10.4,-,N/A,,Clear,290,2012-10-11 05:54:00
2:54 AM,53.1,35.1,50,30.09,10.0,NW,19.6,27.6,N/A,,Clear,310,2012-10-11 06:54:00
3:54 AM,52.0,33.1,49,30.11,10.0,NW,17.3,-,N/A,,Clear,320,2012-10-11 07:54:00
4:54 AM,51.1,33.1,50,30.14,10.0,WNW,16.1,-,N/A,,Partly Cloudy,300,2012-10-11 08:54:00
5:54 AM,50.0,30.0,46,30.17,10.0,WNW,10.4,-,N/A,,Partly Cloudy,300,2012-10-11 09:54:00
6:54 AM,48.9,30.0,48,30.21,10.0,WNW,6.9,-,N/A,,Partly Cloudy,290,2012-10-11 10:54:00
7:54 AM,48.9,30.9,50,30.23,10.0,WNW,8.1,-,N/A,,Clear,300,2012-10-11 11:54:00
8:54 AM,50.0,30.0,46,30.26,10.0,NW,9.2,-,N/A,,Clear,310,2012-10-11 12:54:00
9:54 AM,52.0,28.9,41,30.25,10.0,NNW,16.1,-,N/A,,Clear,330,2012-10-11 13:54:00
10:54 AM,54.0,28.9,38,30.26,10.0,NW,9.2,-,N/A,,Clear,310,2012-10-11 14:54:00
11:54 AM,55.0,28.9,37,30.25,10.0,NW,10.4,18.4,N/A,,Clear,310,2012-10-11 15:54:00
12:54 PM,57.0,28.9,34,30.23,10.0,NW,6.9,-,N/A,,Clear,320,2012-10-11 16:54:00
1:54 PM,59.0,30.0,33,30.21,10.0,West,5.8,-,N/A,,Clear,260,2012-10-11 17:54:00
2:54 PM,60.1,30.9,33,30.20,10.0,SSW,11.5,-,N/A,,Clear,210,2012-10-11 18:54:00
3:54 PM,60.1,33.1,36,30.20,10.0,WSW,10.4,-,N/A,,Clear,240,2012-10-11 19:54:00
4:54 PM,60.1,33.1,36,30.19,10.0,WSW,10.4,-,N/A,,Clear,240,2012-10-11 20:54:00
5:54 PM,59.0,33.1,38,30.19,10.0,SW,9.2,-,N/A,,Clear,220,2012-10-11 21:54:00
6:54 PM,57.9,34.0,41,30.19,10.0,SSW,11.5,-,N/A,,Clear,210,2012-10-11 22:54:00
7:54 PM,55.0,36.0,49,30.20,10.0,WSW,9.2,-,N/A,,Clear,240,2012-10-11 23:54:00
8:54 PM,54.0,37.9,55,30.20,10.0,SSW,5.8,-,N/A,,Clear,200,2012-10-12 00:54:00
9:54 PM,52.0,37.9,59,30.22,10.0,West,8.1,-,N/A,,Clear,260,2012-10-12 01:54:00
10:54 PM,52.0,39.9,63,30.20,10.0,SSW,6.9,-,N/A,,Clear,200,2012-10-12 02:54:00
11:54 PM,50.0,39.0,66,30.18,10.0,SW,5.8,-,N/A,,Scattered Clouds,220,2012-10-12 03:54:00